This demonstration page uses our WeatherBlox Daily Observations layout. Learn more.

Left ArrowRight Arrow

36.17497, -115.13722

Hourly Observations for March 10, 2015

Temp ( °F °C ) Dew Point ( °F °C ) Humidity (%) Winds ( mph kmh ) Pressure ( in mb ) Visibility ( mi km ) Precip ( " mm )
12:53 am 00:53 Clear 56 13.3 23 -5 28 28 WNW 6 9 30.00 1016 10 16 N/A
1:53 am 01:53 Clear 55 12.8 23 -5 29 29 WNW 5 7 30.01 1016 10 16 N/A
2:53 am 02:53 Clear 55 12.8 21 -6.1 26 26 N N/A 30.00 1016 10 16 N/A
3:53 am 03:53 Clear 52 11.1 23 -5 32 32 WNW 3 6 30.00 1016 10 16 N/A
4:53 am 04:53 Clear 53 11.7 22 -5.6 30 30 NW 3 6 30.01 1016 10 16 N/A
5:53 am 05:53 Clear 52 11.1 21 -6.1 30 30 WNW 8 13 30.03 1017 10 16 N/A
6:53 am 06:53 Clear 51 10.6 22 -5.6 32 32 NW 7 11 30.05 1018 10 16 N/A
7:53 am 07:53 Sunny 54 12.2 21 -6.1 28 28 N N/A 30.07 1018 10 16 N/A
8:53 am 08:53 Sunny 58 14.4 21 -6.1 24 24 N N/A 30.09 1019 10 16 N/A
9:53 am 09:53 Sunny 65 18.3 17 -8.3 16 16 ENE 5 7 30.10 1019 10 16 N/A
10:53 am 10:53 Sunny 66 18.9 17 -8.3 15 15 SE 5 7 30.11 1020 10 16 N/A
11:53 am 11:53 Sunny 68 20 16 -8.9 13 13 E 6 9 30.10 1019 10 16 N/A
12:53 pm 12:53 Sunny 70 21.1 14 -10 11 11 N N/A 30.08 1019 10 16 N/A
1:53 pm 13:53 Sunny 72 22.2 15 -9.4 11 11 SW 6 9 30.05 1018 10 16 N/A
2:53 pm 14:53 Sunny 75 23.9 13 -10.6 9 9 N N/A 30.02 1017 10 16 N/A
3:53 pm 15:53 Sunny 75 23.9 11 -11.7 8 8 VRB 5 7 30.01 1016 10 16 N/A
4:53 pm 16:53 Sunny 75 23.9 6 -14.4 7 7 SSE 3 6 30.01 1016 10 16 N/A
5:53 pm 17:53 Sunny 74 23.3 8 -13.3 8 8 SE 3 6 30.01 1016 10 16 N/A
6:53 pm 18:53 Clear 72 22.2 12 -11.1 10 10 N N/A 30.02 1017 10 16 N/A
7:53 pm 19:53 Clear 69 20.6 21 -6.1 16 16 N N/A 30.03 1017 10 16 N/A
8:53 pm 20:53 Clear 68 20 20 -6.7 16 16 N N/A 30.04 1017 10 16 N/A
9:53 pm 21:53 Clear 64 17.8 25 -3.9 23 23 NW 6 9 30.04 1017 10 16 N/A
10:53 pm 22:53 Clear 63 17.2 27 -2.8 26 26 WNW 6 9 30.06 1018 10 16 N/A
11:53 pm 23:53 Clear 62 16.7 25 -3.9 24 24 WNW 5 7 30.08 1019 10 16 N/A

Powered by AerisWeather